www.pogodaiklimat.ru

Погода и климат >> Архив погоды >> Италия >> Рим


АРХИВ ПОГОДЫ в Риме

Время (UTC), дата Ветер
(напр.,м/с)
 
Видим.   Явления Облачность Т
(С)
Тd
(С)
f
(%)
Тe
(С)
Тes
(С)
Комфортность P
(гПа)
Po
(гПа)
Тmin
(С)
Tmax
(С)
R
(мм)
R24
(мм)
S
(см)
12 12.01 СВ 4 >70 км ясно +9.8 -5.3 34 +8 +11 прохладно 1018.6 1018.1
15 12.01 С 3 50 км 3/0
[Ci fib]
+10.1 -4.8 35 +9 +9 по сезону 1018.0 1017.5
18 12.01 С 3 30 км 3/0
[Ci fib]
+4.6 -4.9 50 +2 +2 прохладно 1018.7 1018.2 +10.9
21 12.01 С 3 30 км 3/0
[Ci fib]
+0.3 -4.4 71 -4 -4 очень
холодно
1018.5 1018.0
00 13.01 В 2 25 км ясно -0.1 -4.0 75 -3 -3 холодно 1017.1 1016.6
03 13.01 В 3 25 км 3/0
[Ac lent Ci fib]
-0.5 -3.9 78 -5 -5 очень
холодно
1015.5
06 13.01 В 3 20 км слаб. морось 10/6 800 м
[Frnb As op]
+3.1 -2.4 67 -0 -0 прохладно 1014.4 1013.9 -2.0
09 13.01 В 4 20 км слаб. морось 10/6 800 м
[Frnb As op]
+4.9 -0.3 69 +1 +1 холодно 1013.6 1013.1
12 13.01 СВ 5 20 км 10/6 800 м
[Frnb As op]
+11.3 +4.9 65 +9 +9 по сезону 1012.0 1011.6
15 13.01 СВ 3 20 км 3/3 1050 м
[Cu Sc]
+12.1 +5.5 64 +11 +11 по сезону 1010.5 1010.1
18 13.01 С 2 20 км 3/3 1050 м
[Cu Sc]
+6.0 +4.0 87 +4 +4 по сезону 1011.1 1010.6 +13.0
21 13.01 СВ 3 15 км 3/3 750 м
[Cu Sc]
+4.9 +3.6 91 +2 +2 прохладно 1010.7 1010.2
00 14.01 В 3 15 км 5/5 750 м
[Cu Sc]
+4.4 +3.3 93 +1 +1 прохладно 1008.1 1007.6
03 14.01 В 4 15 км 5/5 600 м
[Cu Sc]
+6.2 +4.3 88 +2 +2 по сезону 1004.7 1004.2
06 14.01 В 5 15 км {морось} 8/5 540 м
[Cu Sc]
+9.1 +7.7 91 +6 +6 по сезону 1001.6 1001.1 +4.0
09 14.01 С 3 8000 м слаб. дождь {морось} 8/8 300 м
[Cu Sc]
+9.3 +7.6 89 +7 +7 по сезону 1002.8 1002.3
12 14.01 СЗ 3 35 км {дождь, морось} 1/1 600 м
[Cu hum Ac trans]
+15.2 +9.1 67 +15 +18 тепло 1002.4 1001.9 0.2
15 14.01 СЗ 8 25 км 1/1 600 м
[Cu hum]
+13.9 +8.8 71 +11 +12 по сезону 1003.3 1002.8
18 14.01 СЗ 5 20 км ясно +11.9 +9.4 85 +9 +9 по сезону 1006.3 1005.8 +15.3 0.4
21 14.01 СЗ 1 15 км ясно +9.3 +6.9 85 +9 +9 тепло 1008.1 1007.6
00 15.01 С 3 15 км ясно +5.5 +0.5 70 +2 +2 по сезону 1009.8 1009.3
09 15.01 С 5 >70 км ясно +10.3 -1.0 45 +8 +9 по сезону 1018.1 1017.6
12 15.01 В 5 >70 км ясно +13.4 -4.6 28 +12 +15 по сезону 1018.5 1018.0
15 15.01 С 1 >70 км ясно +14.0 -4.5 27 +15 +16 тепло 1019.4 1018.9
18 15.01 ЮВ 1 30 км ясно +8.7 -2.5 45 +9 +9 по сезону 1021.2 1020.7 +14.4
21 15.01 В 1 30 км ясно +3.7 -1.3 70 +2 +2 прохладно 1023.2 1022.7
00 16.01 СВ 1 30 км 1/0
[Ac lent]
+1.4 -0.9 85 -0 -0 прохладно 1023.9 1023.4
03 16.01 В 2 30 км 1/0
[Ac lent]
+0.6 -1.5 86 -3 -3 холодно 1023.6 1023.1
06 16.01 В 4 45 км 3/1 1200 м
[Cu hum Ac lent]
+2.5 -0.3 82 -2 -2 прохладно 1024.0 1023.5 +0.6
09 16.01 В 3 40 км 4/4 1050 м
[Cu hum]
+8.4 +2.8 68 +6 +8 по сезону 1024.7
12 16.01 Ю 5 40 км 5/5 1050 м
[Cu hum]
+13.5 +6.4 62 +12 +13 по сезону 1023.5 1023.0
15 16.01 Ю 5 40 км 6/6 1500 м
[Cu med, cong]
+13.3 +5.0 57 +11 +12 по сезону 1022.8 1022.3
18 16.01 ЮВ 3 20 км ясно +9.7 +3.7 66 +8 +8 по сезону 1022.6 1022.1 +15.0
21 16.01 ЮВ 3 20 км ясно +8.2 +3.4 72 +6 +6 по сезону 1022.8 1022.3
00 17.01 В 3 20 км 1/1 1200 м
[Cu hum]
+4.3 +2.1 86 +1 +1 прохладно 1022.1 1021.6
03 17.01 В 3 20 км 3/3 900 м
[Cu hum]
+5.0 +2.4 83 +1 +1 по сезону 1020.4 1019.9
06 17.01 В 3 35 км 5/5 900 м
[Cu hum Ac cuf]
+7.5 +4.0 78 +5 +5 по сезону 1019.2 1018.8 +3.2
09 17.01 ЮВ 7 20 км 5/5 750 м
[Cu Sc Ac cuf]
+12.0 +5.7 65 +9 +10 по сезону 1018.8 1018.3
12 17.01 ЮВ 7 30 км 6/5 600 м
[Cu Sc Ac cuf]
+14.0 +8.3 68 +12 +12 по сезону 1016.8 1016.3
15 17.01 ЮВ 6 20 км {дождь} 9/8 450 м
[Cu Sc Ac cuf]
+12.0 +9.5 85 +9 +9 по сезону 1015.4 1014.9
18 17.01 Ю 4 12 км слаб. дождь 10/8 900 м
[Cu Sc As op]
+11.0 +8.9 87 +9 +9 по сезону 1014.7 1014.2 +14.3 3
21 17.01 Ю 3 15 км {дождь} 8/0
[Ac As]
+11.9 +8.3 79 +11 +11 тепло 1014.8 1014.4
00 18.01 ЮЗ 4 15 км {дождь} 8/8 900 м
[Cu Sc Ac As]
+12.7 +8.2 74 +11 +11 тепло 1014.3 1013.9 0.2
03 18.01 ЮЗ 5 15 км {дождь} 6/6 900 м
[Cu Sc Ac As]
+12.7 +7.5 71 +11 +11 тепло 1013.1 1012.7
06 18.01 В 2 15 км {дождь} 8/6 900 м
[Cu Sc As op]
+9.7 +8.0 89 +8 +8 тепло 1012.7 1012.2 +9.5 0.2
09 18.01 ЮЗ 6 10 км 8/8 600 м
[Cu Sc Ac trans]
+13.7 +8.1 69 +12 +12 тепло 1013.4 1013.0
12 18.01 ЮЗ 7 20 км 8/8 600 м
[Sc diur, vesp Ac cuf]
+13.6 +6.8 63 +11 +12 по сезону 1013.2 1012.8
15 18.01 З 5 25 км 8/5 1050 м
[Cu hum Ac cuf]
+12.9 +5.3 60 +11 +11 по сезону 1013.3 1012.8
18 18.01 З 4 15 км 4/4 1050 м
[Cu hum]
+10.3 +4.2 66 +8 +8 по сезону 1013.9 1013.4 +14.6
21 18.01 ЮЗ 4 15 км 6/6 1140 м
[Cu hum]
+11.7 +3.4 57 +10 +10 тепло 1014.1 1013.6
00 19.01 Ю 3 15 км 6/6 1350 м
[Cu hum]
+10.2 +2.9 60 +8 +8 тепло 1014.3 1013.8
03 19.01 В 3 15 км 6/6 1350 м
[Cu hum]
+4.9 +3.2 89 +1 +1 по сезону 1013.7 1013.2
06 19.01 В 4 30 км 3/3 1350 м
[Sc diur, vesp]
+5.2 +2.9 85 +1 +1 по сезону 1013.4 1012.9 +4.1
09 19.01 В 4 15 км осадки на расстоянии {ливн. осадки, морось} 6/5 1050 м
[Cu med, cong Ac cuf]
+9.5 +5.3 75 +7 +8 по сезону 1014.1 1013.7

 

Местоположение метеостанции Рим (Италия): широта 41.80 долгота 12.23 высота над уровнем моря 3 м.

В архиве по умолчанию представлена погода в Риме за последнюю неделю. Архивные данные за месяц целиком и за предыдущие месяцы, начиная с января 2011 года, Вы можете получить, выбрав интересующий диапазон дат из раскрывающегося списка и нажав кнопку "Ввод!".


*Определитесь, кто Вы:
робот инопланетянин человек

Внимание! Время в таблицах - всемирное. Для получения местного времени необходимо прибавить поправку, которая равна 1 ч.

Смотрите также архив погоды в соседних городах и на ближайших метеорологических станциях:

Погода в Пратика-ди-Маре (Италия) (25 км)
Погода в Винья-ди-Валле (Италия) (31 км)
Погода в Чивитавеккье (Италия) (42 км)
Погода в Гуидония-Монтечельо (Италия) (47 км)
Погода в Латине (Италия) (62 км)
Погода в Латине 2 (Италия) (62 км)
Погода в Витербо (Италия) (72 км)
Погода во Фрозиноне (Италия) (91 км)
Погода в Торре-Олеволе (Италия) (96 км)
Погода на Монте Терминилло (Италия) (97 км)

Пояснения к столбцам:

Ветер - указаны скорость ветра в м/с - средняя за 10 мин, порывы в срок и между сроками (в фигурных скобках) и направление, откуда дует ветер: С - северный, СВ - северо-восточный, В - восточный, ЮВ - юго-восточный, Ю - южный, ЮЗ - юго-западный, З - западный, СЗ - северо-западный.
Видимость - горизонтальная дальность видимости в метрах или километрах. При видимости от 1 до 10 км при отсутствии осадков обычно наблюдается дымка, при ухудшении видимости до 1 км и менее - туман. В сухую погоду видимость может ухудшаться дымом, пылью или мглою.
Явления - указаны атмосферные явления, наблюдавшиеся в срок или в последний час перед сроком; фигурными скобками обозначены явления, наблюдавшиеся между сроками (за 1-3 часа до срока); квадратными скобками обозначены град или гололедные отложения с указанием их диаметра в мм.
Облачность - указаны через наклонную черту общая и нижняя облачность в баллах и высота нижней границы облаков в метрах; квадратными скобками обозначены формы облаков: Ci - перистые, Cs - перисто-слоистые, Cc - перисто-кучевые, Ac - высококучевые, As - высокослоистые, Sc - слоисто-кучевые, Ns - слоисто-дождевые, Cu - кучевые, Cb - кучево-дождевые. Подробнее классификацию облаков см. в Атласе облаков (PDF).
T - Температура воздуха - температура, измеренная на высоте 2 м над землей.
Td - Температура точки росы - температура, при понижении до которой содержащийся в воздухе водяной пар достигнет насыщения.
f - Относительная влажность воздуха - влажноcть воздуха, измеренная на высоте 2 м над землей.
Te - Эффективная температура - температура, которую ощущает одетый по сезону человек в тени. Характеристика душности погоды. При расчете учитывается влияние влажности воздуха и скорости ветра на теплоощущения человека.
Tes - Эффективная температура на солнце - температура, которую ощущает человек, с поправкой на солнечный нагрев. Характеристика знойности погоды. Зависит от высоты солнца над горизонтом, облачности и скорости ветра. Ночью, в пасмурную погоду, а также при ветре 12 м/с и более поправка равна нулю.
P - Атмосферное давление - приведенное к уровню моря атмосферное давление.
Po - Атмосферное давление - измеренное на уровне метеостанции атмосферное давление.
Tmin - Минимальная температура - минимум температуры воздуха на высоте 2 м над землей.
Tmax - Максимальная температура - максимум температуры воздуха на высоте 2 м над землей.
R - Количество осадков - Количество выпавших осадков за период времени, мм. При наведении курсора мыши на число - период времени, за который выпало указанное количество осадков.
R24 - Количество осадков - Количество выпавших осадков за 24 часа, мм.
S - Снежный покров - Высота снежного покрова, см. При наведении курсора мыши на число - состояние снежного покрова и степень покрытия местности в баллах.